| time (UTC) | temp F | wind direction | speed MPH | gust MPH | rain 1hr in | rain 24hr in | rain mn in | humidity % | barometer mb |
| 20260505101557 | 50 | 360 | 0.0 | 0.0 | 0.00 | 0.00 | 0.00 | 61 | 1015.3 |
| 20260505094557 | 51 | 360 | 0.0 | 0.0 | 0.00 | 0.00 | 0.00 | 62 | 1015.2 |
| 20260505093052 | 51 | 360 | 0.0 | 0.0 | 0.00 | 0.00 | 0.00 | 61 | 1015.2 |
| 20260505091552 | 52 | 360 | 0.0 | 0.0 | 0.00 | 0.00 | 0.00 | 61 | 1015.1 |
| 20260505090105 | 53 | 360 | 0.0 | 1.0 | 0.00 | 0.00 | 0.00 | 60 | 1015.0 |
| 20260505084548 | 53 | 360 | 0.0 | 0.0 | 0.00 | 0.00 | 0.00 | 59 | 1014.9 |
| 20260505083047 | 54 | 360 | 0.0 | 2.0 | 0.00 | 0.00 | 0.00 | 59 | 1014.7 |
| 20260505081548 | 54 | 360 | 0.0 | 0.0 | 0.00 | 0.00 | 0.00 | 58 | 1014.6 |
| 20260505080051 | 55 | 360 | 0.0 | 0.0 | 0.00 | 0.00 | 0.00 | 56 | 1014.6 |
| 20260505074538 | 56 | 360 | 0.0 | 0.0 | 0.00 | 0.00 | 0.00 | 54 | 1014.6 |
| 20260505073051 | 57 | 360 | 0.0 | 2.0 | 0.00 | 0.00 | 0.00 | 54 | 1014.7 |
| 20260505071538 | 57 | 360 | 0.0 | 3.0 | 0.00 | 0.00 | 0.00 | 53 | 1014.5 |
| 20260505070044 | 57 | 360 | 0.0 | 3.0 | 0.00 | 0.00 | 0.00 | 52 | 1014.4 |
| 20260505064535 | 58 | 360 | 0.0 | 3.0 | 0.00 | 0.00 | 0.00 | 50 | 1014.4 |
| 20260505063034 | 58 | 161 | 0.0 | 2.0 | 0.00 | 0.00 | 0.00 | 48 | 1014.6 |
| 20260505061528 | 59 | 144 | 1.0 | 4.0 | 0.00 | 0.00 | 0.00 | 47 | 1014.5 |
| 20260505060029 | 59 | 168 | 1.0 | 3.0 | 0.00 | 0.00 | 0.00 | 46 | 1014.6 |
| 20260505054526 | 60 | 203 | 0.0 | 5.0 | 0.00 | 0.00 | 0.00 | 44 | 1014.6 |
| 20260505053025 | 60 | 150 | 1.0 | 4.0 | 0.00 | 0.00 | 0.00 | 44 | 1014.7 |
| 20260505051525 | 60 | 181 | 0.0 | 2.0 | 0.00 | 0.00 | 0.00 | 42 | 1014.6 |
| 20260505041536 | 62 | 167 | 1.0 | 5.0 | 0.00 | 0.00 | 0.00 | 39 | 1014.7 |
| 20260505040017 | 63 | 182 | 1.0 | 4.0 | 0.00 | 0.00 | 0.00 | 39 | 1014.7 |
| 20260505034515 | 63 | 202 | 1.0 | 5.0 | 0.00 | 0.00 | 0.00 | 38 | 1014.7 |
| 20260505033014 | 64 | 174 | 0.0 | 5.0 | 0.00 | 0.00 | 0.00 | 37 | 1014.8 |
| 20260505031517 | 64 | 168 | 0.0 | 3.0 | 0.00 | 0.00 | 0.00 | 37 | 1014.8 |
| 20260505030015 | 65 | 177 | 0.0 | 4.0 | 0.00 | 0.00 | 0.00 | 36 | 1014.9 |
| 20260505024513 | 64 | 278 | 0.0 | 2.0 | 0.00 | 0.00 | 0.00 | 37 | 1014.8 |
| 20260505023012 | 64 | 189 | 0.0 | 2.0 | 0.00 | 0.00 | 0.00 | 37 | 1014.6 |
| 20260505021512 | 64 | 193 | 0.0 | 1.0 | 0.00 | 0.00 | 0.00 | 36 | 1014.5 |
| 20260505020017 | 64 | 163 | 0.0 | 2.0 | 0.00 | 0.00 | 0.00 | 36 | 1014.5 |
| 20260505014511 | 64 | 161 | 0.0 | 3.0 | 0.00 | 0.00 | 0.00 | 36 | 1014.4 |
| 20260505013006 | 66 | 155 | 0.0 | 1.0 | 0.00 | 0.00 | 0.00 | 33 | 1014.4 |
| 20260505011510 | 66 | 155 | 0.0 | 1.0 | 0.00 | 0.00 | 0.00 | 32 | 1014.2 |
| 20260505010006 | 67 | 302 | 0.0 | 0.0 | 0.00 | 0.00 | 0.00 | 31 | 1014.2 |
| 20260505004504 | 68 | 308 | 0.0 | 1.0 | 0.00 | 0.00 | 0.00 | 29 | 1014.0 |
| 20260505003003 | 69 | 321 | 0.0 | 1.0 | 0.00 | 0.00 | 0.00 | 28 | 1013.8 |
| 20260505001614 | 69 | 323 | 0.0 | 1.0 | 0.00 | 0.00 | 0.00 | 27 | 1013.7 |
| 20260505000111 | 71 | 323 | 0.0 | 1.0 | 0.00 | 0.00 | 0.00 | 26 | 1013.7 |
| 20260504234605 | 72 | 66 | 0.0 | 4.0 | 0.00 | 0.00 | 0.00 | 23 | 1013.5 |
| 20260504233050 | 73 | 191 | 1.0 | 3.0 | 0.00 | 0.00 | 0.00 | 22 | 1013.2 |
| 20260504231540 | 74 | 184 | 1.0 | 6.0 | 0.00 | 0.00 | 0.00 | 21 | 1013.3 |
| 20260504230037 | 75 | 172 | 1.0 | 7.0 | 0.00 | 0.00 | 0.00 | 20 | 1013.3 |
| 20260504224534 | 76 | 281 | 1.0 | 7.0 | 0.00 | 0.00 | 0.00 | 21 | 1013.2 |
| 20260504223036 | 77 | 115 | 1.0 | 4.0 | 0.00 | 0.00 | 0.00 | 17 | 1013.3 |
| 20260504221535 | 77 | 14 | 1.0 | 5.0 | 0.00 | 0.00 | 0.00 | 19 | 1013.2 |
| 20260504220132 | 78 | 169 | 4.0 | 9.0 | 0.00 | 0.00 | 0.00 | 17 | 1013.3 |
| 20260504214531 | 78 | 36 | 1.0 | 8.0 | 0.00 | 0.00 | 0.00 | 16 | 1013.3 |
| 20260504213052 | 78 | 209 | 1.0 | 8.0 | 0.00 | 0.00 | 0.00 | 17 | 1013.4 |
| 20260504211530 | 77 | 169 | 4.0 | 10.0 | 0.00 | 0.00 | 0.00 | 19 | 1013.4 |
| 20260504210029 | 78 | 257 | 2.0 | 6.0 | 0.00 | 0.00 | 0.00 | 17 | 1013.4 |
| 20260504204529 | 78 | 147 | 2.0 | 9.0 | 0.00 | 0.00 | 0.00 | 16 | 1013.6 |
| 20260504203025 | 77 | 314 | 4.0 | 9.0 | 0.00 | 0.00 | 0.00 | 19 | 1013.6 |
| 20260504201526 | 78 | 155 | 5.0 | 10.0 | 0.00 | 0.00 | 0.00 | 19 | 1013.9 |
| 20260504200021 | 78 | 260 | 1.0 | 9.0 | 0.00 | 0.00 | 0.00 | 19 | 1014.2 |
| 20260504194519 | 77 | 286 | 1.0 | 9.0 | 0.00 | 0.00 | 0.00 | 22 | 1014.2 |
| 20260504193015 | 76 | 167 | 3.0 | 11.0 | 0.00 | 0.00 | 0.00 | 21 | 1014.4 |
| 20260504191513 | 76 | 207 | 4.0 | 8.0 | 0.00 | 0.00 | 0.00 | 23 | 1014.4 |
| 20260504190012 | 76 | 162 | 5.0 | 10.0 | 0.00 | 0.00 | 0.00 | 20 | 1014.6 |
| 20260504184513 | 76 | 174 | 1.0 | 6.0 | 0.00 | 0.00 | 0.00 | 20 | 1014.8 |
| 20260504183007 | 75 | 157 | 2.0 | 4.0 | 0.00 | 0.00 | 0.00 | 24 | 1015.1 |
| 20260504181506 | 75 | 176 | 4.0 | 10.0 | 0.00 | 0.00 | 0.00 | 24 | 1015.1 |
| 20260504180007 | 74 | 38 | 1.0 | 5.0 | 0.00 | 0.00 | 0.00 | 22 | 1015.3 |
| 20260504174503 | 74 | 140 | 5.0 | 11.0 | 0.00 | 0.00 | 0.00 | 24 | 1015.4 |
| 20260504173114 | 73 | 242 | 0.0 | 6.0 | 0.00 | 0.00 | 0.00 | 25 | 1015.5 |
| 20260504171559 | 72 | 88 | 2.0 | 7.0 | 0.00 | 0.00 | 0.00 | 25 | 1015.7 |
| 20260504140104 | 59 | 338 | 0.0 | 3.0 | 0.00 | 0.00 | 0.00 | 49 | 1017.3 |